Time,TemperatureF,DewpointF,PressureIn,WindDirection,WindDirectionDegrees,WindSpeedMPH,WindSpeedGustMPH,Humidity,HourlyPrecipIn,Conditions,Clouds,dailyrainin,SoftwareType,DateUTC
2013-07-17 00:02:00,74.0,73.0,-100.00,SSE,160,2.0,3.0,94,0.00,,,-99.99,,2013-07-17 05:02:00,
2013-07-17 00:11:00,74.0,72.0,-100.00,SE,145,2.0,3.0,94,0.00,,,-99.99,,2013-07-17 05:11:00,
2013-07-17 00:22:00,74.0,72.0,-100.00,SE,145,2.0,3.0,95,0.00,,,-99.99,,2013-07-17 05:22:00,
2013-07-17 00:32:00,74.0,73.0,-100.00,SSE,150,2.0,3.0,95,0.00,,,-99.99,,2013-07-17 05:32:00,
2013-07-17 00:43:00,74.0,72.0,-100.00,SSE,155,3.0,3.0,95,0.00,,,-99.99,,2013-07-17 05:43:00,
2013-07-17 00:52:00,74.0,72.0,-100.00,SSE,150,3.0,3.0,95,0.00,,,-99.99,,2013-07-17 05:52:00,
2013-07-17 01:01:00,73.0,72.0,-100.00,SSE,155,3.0,4.0,96,0.00,,,-99.99,,2013-07-17 06:01:00,
2013-07-17 01:11:00,73.0,72.0,-100.00,SSE,155,3.0,4.0,96,0.00,,,-99.99,,2013-07-17 06:11:00,
2013-07-17 01:22:00,73.0,72.0,-100.00,SSE,150,1.0,3.0,96,0.00,,,-99.99,,2013-07-17 06:22:00,
2013-07-17 01:32:00,73.0,72.0,-100.00,SE,130,1.0,1.0,96,0.00,,,-99.99,,2013-07-17 06:32:00,
2013-07-17 01:43:00,73.0,72.0,-100.00,SSE,150,1.0,2.0,96,0.00,,,-99.99,,2013-07-17 06:43:00,
2013-07-17 01:52:00,73.0,72.0,-100.00,SSE,160,1.0,2.0,96,0.00,,,-99.99,,2013-07-17 06:52:00,
2013-07-17 02:01:00,73.0,72.0,-100.00,SSE,155,2.0,2.0,96,0.00,,,-99.99,,2013-07-17 07:01:00,
2013-07-17 02:11:00,73.0,72.0,-100.00,SSE,150,2.0,2.0,96,0.00,,,-99.99,,2013-07-17 07:11:00,
2013-07-17 02:22:00,72.0,71.0,-100.00,SSE,165,2.0,3.0,96,0.00,,,-99.99,,2013-07-17 07:22:00,
2013-07-17 02:32:00,72.0,71.0,-100.00,SSE,165,3.0,3.0,96,0.00,,,-99.99,,2013-07-17 07:32:00,
2013-07-17 02:42:00,72.0,71.0,-100.00,SSE,165,2.0,3.0,96,0.00,,,-99.99,,2013-07-17 07:42:00,
2013-07-17 02:52:00,72.0,72.0,-100.00,SSW,195,3.0,3.0,97,0.00,,,-99.99,,2013-07-17 07:52:00,
2013-07-17 03:01:00,72.0,71.0,-100.00,SSW,195,1.0,3.0,97,0.00,,,-99.99,,2013-07-17 08:01:00,
2013-07-17 03:11:00,72.0,71.0,-100.00,South,190,2.0,2.0,97,0.00,,,-99.99,,2013-07-17 08:11:00,
2013-07-17 03:22:00,72.0,71.0,-100.00,SSW,195,2.0,3.0,97,0.00,,,-99.99,,2013-07-17 08:22:00,
2013-07-17 03:32:00,72.0,71.0,-100.00,South,190,1.0,2.0,97,0.00,,,-99.99,,2013-07-17 08:32:00,
2013-07-17 03:43:00,72.0,71.0,-100.00,SSW,200,2.0,3.0,97,0.00,,,-99.99,,2013-07-17 08:43:00,
2013-07-17 03:53:00,72.0,71.0,-100.00,SW,215,0.0,2.0,97,0.00,,,-99.99,,2013-07-17 08:53:00,
2013-07-17 04:02:00,72.0,71.0,-100.00,SW,230,0.0,1.0,97,0.00,,,-99.99,,2013-07-17 09:02:00,
2013-07-17 04:12:00,72.0,71.0,-100.00,South,190,1.0,2.0,97,0.00,,,-99.99,,2013-07-17 09:12:00,
2013-07-17 04:22:00,72.0,71.0,-100.00,SSW,195,2.0,2.0,97,0.00,,,-99.99,,2013-07-17 09:22:00,
2013-07-17 04:32:00,72.0,71.0,-100.00,SSW,210,1.0,2.0,97,0.00,,,-99.99,,2013-07-17 09:32:00,
2013-07-17 04:43:00,71.0,70.0,-100.00,SSW,195,0.0,1.0,97,0.00,,,-99.99,,2013-07-17 09:43:00,
2013-07-17 04:52:00,71.0,71.0,-100.00,SSW,205,0.0,1.0,97,0.00,,,-99.99,,2013-07-17 09:52:00,
2013-07-17 05:01:00,71.0,71.0,-100.00,SSE,160,1.0,1.0,97,0.00,,,-99.99,,2013-07-17 10:01:00,
2013-07-17 05:11:00,71.0,70.0,-100.00,SSE,160,2.0,3.0,97,0.00,,,-99.99,,2013-07-17 10:11:00,
2013-07-17 05:22:00,71.0,70.0,-100.00,South,175,1.0,2.0,97,0.00,,,-99.99,,2013-07-17 10:22:00,
2013-07-17 05:32:00,71.0,71.0,-100.00,SSW,200,0.0,1.0,97,0.00,,,-99.99,,2013-07-17 10:32:00,
2013-07-17 05:43:00,71.0,71.0,-100.00,SW,215,1.0,2.0,97,0.00,,,-99.99,,2013-07-17 10:43:00,
2013-07-17 05:52:00,72.0,71.0,-100.00,SSW,210,0.0,1.0,97,0.00,,,-99.99,,2013-07-17 10:52:00,
2013-07-17 06:02:00,71.0,71.0,-100.00,SSW,195,1.0,2.0,97,0.00,,,-99.99,,2013-07-17 11:02:00,
2013-07-17 06:22:00,71.0,70.0,-100.00,SE,125,0.0,1.0,97,0.00,,,-99.99,,2013-07-17 11:22:00,
2013-07-17 06:32:00,71.0,70.0,-100.00,SSE,155,0.0,1.0,97,0.00,,,-99.99,,2013-07-17 11:32:00,
2013-07-17 06:42:00,71.0,70.0,-100.00,SE,135,0.0,1.0,97,0.00,,,-99.99,,2013-07-17 11:42:00,
2013-07-17 07:01:00,72.0,71.0,-100.00,ESE,120,0.0,1.0,97,0.00,,,-99.99,,2013-07-17 12:01:00,
2013-07-17 07:12:00,73.0,72.0,-100.00,ENE,65,0.0,0.0,97,0.00,,,-99.99,,2013-07-17 12:12:00,
2013-07-17 07:22:00,73.0,72.0,-100.00,SE,135,0.0,1.0,96,0.00,,,-99.99,,2013-07-17 12:22:00,
2013-07-17 07:32:00,75.0,74.0,-100.00,SSE,160,0.0,1.0,96,0.00,,,-99.99,,2013-07-17 12:32:00,
2013-07-17 07:42:00,76.0,74.0,-100.00,SW,225,0.0,1.0,94,0.00,,,-99.99,,2013-07-17 12:42:00,
2013-07-17 07:53:00,78.0,75.0,-100.00,SE,135,0.0,0.0,91,0.00,,,-99.99,,2013-07-17 12:53:00,
2013-07-17 08:01:00,78.0,75.0,-100.00,South,185,0.0,1.0,88,0.00,,,-99.99,,2013-07-17 13:01:00,
2013-07-17 08:22:00,80.0,73.0,-100.00,SW,235,0.0,2.0,80,0.00,,,-99.99,,2013-07-17 13:22:00,
2013-07-17 08:43:00,81.0,73.0,-100.00,SW,230,1.0,3.0,75,0.00,,,-99.99,,2013-07-17 13:43:00,
2013-07-17 08:52:00,81.0,73.0,-100.00,SW,230,2.0,5.0,75,0.00,,,-99.99,,2013-07-17 13:52:00,
2013-07-17 09:02:00,81.0,72.0,-100.00,West,265,3.0,4.0,73,0.00,,,-99.99,,2013-07-17 14:02:00,
2013-07-17 09:11:00,82.0,72.0,-100.00,WSW,250,2.0,4.0,72,0.00,,,-99.99,,2013-07-17 14:11:00,
2013-07-17 09:22:00,83.0,72.0,-100.00,SW,230,3.0,4.0,71,0.00,,,-99.99,,2013-07-17 14:22:00,
2013-07-17 09:32:00,83.0,73.0,-100.00,WNW,290,3.0,4.0,70,0.00,,,-99.99,,2013-07-17 14:32:00,
2013-07-17 09:43:00,84.0,72.0,-100.00,WSW,245,2.0,6.0,67,0.00,,,-99.99,,2013-07-17 14:43:00,
2013-07-17 09:52:00,85.0,73.0,-100.00,SW,235,1.0,4.0,66,0.00,,,-99.99,,2013-07-17 14:52:00,
2013-07-17 10:02:00,86.0,72.0,-100.00,SW,220,1.0,4.0,64,0.00,,,-99.99,,2013-07-17 15:02:00,
2013-07-17 10:12:00,87.0,73.0,-100.00,WNW,300,3.0,4.0,63,0.00,,,-99.99,,2013-07-17 15:12:00,
2013-07-17 10:22:00,87.0,72.0,-100.00,WSW,245,2.0,4.0,61,0.00,,,-99.99,,2013-07-17 15:22:00,
2013-07-17 10:32:00,88.0,72.0,-100.00,WSW,255,1.0,4.0,60,0.00,,,-99.99,,2013-07-17 15:32:00,
2013-07-17 10:42:00,88.0,72.0,-100.00,West,275,1.0,4.0,58,0.00,,,-99.99,,2013-07-17 15:42:00,
2013-07-17 10:52:00,90.0,72.0,-100.00,SW,215,1.0,2.0,56,0.00,,,-99.99,,2013-07-17 15:52:00,
2013-07-17 11:02:00,89.0,71.0,-100.00,NW,305,2.0,4.0,55,0.00,,,-99.99,,2013-07-17 16:02:00,
2013-07-17 11:11:00,90.0,71.0,-100.00,West,275,0.0,2.0,52,0.00,,,-99.99,,2013-07-17 16:11:00,
2013-07-17 11:22:00,90.0,71.0,-100.00,WSW,240,1.0,3.0,53,0.00,,,-99.99,,2013-07-17 16:22:00,
2013-07-17 11:33:00,92.0,72.0,-100.00,SW,215,0.0,4.0,53,0.00,,,-99.99,,2013-07-17 16:33:00,
2013-07-17 11:42:00,91.0,71.0,-100.00,SW,225,1.0,3.0,52,0.00,,,-99.99,,2013-07-17 16:42:00,
2013-07-17 12:02:00,91.0,71.0,-100.00,South,190,1.0,4.0,51,0.00,,,-99.99,,2013-07-17 17:02:00,
2013-07-17 12:11:00,92.0,70.0,-100.00,SW,225,2.0,4.0,48,0.00,,,-99.99,,2013-07-17 17:11:00,
2013-07-17 12:22:00,92.0,69.0,-100.00,South,190,3.0,4.0,47,0.00,,,-99.99,,2013-07-17 17:22:00,
2013-07-17 12:32:00,92.0,69.0,-100.00,SW,230,2.0,5.0,46,0.00,,,-99.99,,2013-07-17 17:32:00,
2013-07-17 12:43:00,92.0,69.0,-100.00,West,275,0.0,2.0,46,0.00,,,-99.99,,2013-07-17 17:43:00,
2013-07-17 12:52:00,93.0,70.0,-100.00,North,0,0.0,4.0,46,0.00,,,-99.99,,2013-07-17 17:52:00,
2013-07-17 13:01:00,93.0,68.0,-100.00,SSW,205,1.0,6.0,44,0.00,,,-99.99,,2013-07-17 18:01:00,
2013-07-17 13:11:00,93.0,68.0,-100.00,SW,215,4.0,5.0,44,0.00,,,-99.99,,2013-07-17 18:11:00,
2013-07-17 13:22:00,94.0,68.0,-100.00,South,170,2.0,6.0,43,0.00,,,-99.99,,2013-07-17 18:22:00,
2013-07-17 13:32:00,94.0,69.0,-100.00,SE,145,2.0,4.0,43,0.00,,,-99.99,,2013-07-17 18:32:00,
2013-07-17 13:43:00,94.0,69.0,-100.00,WSW,240,1.0,4.0,43,0.00,,,-99.99,,2013-07-17 18:43:00,
2013-07-17 13:52:00,94.0,68.0,-100.00,SW,230,3.0,4.0,43,0.00,,,-99.99,,2013-07-17 18:52:00,
2013-07-17 14:01:00,94.0,69.0,-100.00,SSE,155,0.0,4.0,43,0.00,,,-99.99,,2013-07-17 19:01:00,
2013-07-17 14:11:00,95.0,70.0,-100.00,ENE,75,2.0,4.0,44,0.00,,,-99.99,,2013-07-17 19:11:00,
2013-07-17 14:22:00,94.0,69.0,-100.00,SSE,150,2.0,6.0,44,0.00,,,-99.99,,2013-07-17 19:22:00,
2013-07-17 14:32:00,95.0,69.0,-100.00,SSE,150,1.0,5.0,43,0.00,,,-99.99,,2013-07-17 19:32:00,
2013-07-17 14:43:00,95.0,69.0,-100.00,SSW,195,3.0,6.0,43,0.00,,,-99.99,,2013-07-17 19:43:00,
2013-07-17 15:02:00,95.0,69.0,-100.00,South,170,2.0,5.0,43,0.00,,,-99.99,,2013-07-17 20:02:00,
2013-07-17 15:11:00,96.0,69.0,-100.00,SSW,200,1.0,4.0,42,0.00,,,-99.99,,2013-07-17 20:11:00,
2013-07-17 15:22:00,95.0,69.0,-100.00,WSW,245,3.0,4.0,43,0.00,,,-99.99,,2013-07-17 20:22:00,
2013-07-17 15:33:00,95.0,70.0,-100.00,SSE,155,1.0,4.0,43,0.00,,,-99.99,,2013-07-17 20:33:00,
2013-07-17 15:43:00,95.0,70.0,-100.00,SSE,160,6.0,9.0,44,0.00,,,-99.99,,2013-07-17 20:43:00,
2013-07-17 15:52:00,95.0,69.0,-100.00,SSW,200,4.0,6.0,43,0.00,,,-99.99,,2013-07-17 20:52:00,
2013-07-17 16:02:00,95.0,69.0,-100.00,SW,230,1.0,6.0,43,0.00,,,-99.99,,2013-07-17 21:02:00,
2013-07-17 16:12:00,95.0,70.0,-100.00,SE,130,3.0,4.0,43,0.00,,,-99.99,,2013-07-17 21:12:00,
2013-07-17 16:22:00,94.0,69.0,-100.00,ESE,105,4.0,6.0,44,0.00,,,-99.99,,2013-07-17 21:22:00,
2013-07-17 16:42:00,94.0,69.0,-100.00,SW,235,2.0,5.0,43,0.00,,,-99.99,,2013-07-17 21:42:00,
2013-07-17 16:52:00,95.0,70.0,-100.00,SE,145,1.0,4.0,44,0.00,,,-99.99,,2013-07-17 21:52:00,
2013-07-17 17:01:00,95.0,70.0,-100.00,ESE,105,3.0,6.0,44,0.00,,,-99.99,,2013-07-17 22:01:00,
2013-07-17 17:11:00,94.0,70.0,-100.00,SE,125,2.0,6.0,44,0.00,,,-99.99,,2013-07-17 22:11:00,
2013-07-17 17:22:00,95.0,70.0,-100.00,SE,145,3.0,4.0,44,0.00,,,-99.99,,2013-07-17 22:22:00,
2013-07-17 17:32:00,96.0,70.0,-100.00,SE,135,1.0,4.0,43,0.00,,,-99.99,,2013-07-17 22:32:00,
2013-07-17 17:43:00,95.0,69.0,-100.00,SE,135,3.0,5.0,43,0.00,,,-99.99,,2013-07-17 22:43:00,
2013-07-17 18:02:00,94.0,70.0,-100.00,ESE,120,3.0,5.0,45,0.00,,,-99.99,,2013-07-17 23:02:00,
2013-07-17 18:11:00,94.0,70.0,-100.00,SE,145,2.0,4.0,45,0.00,,,-99.99,,2013-07-17 23:11:00,
2013-07-17 18:22:00,93.0,70.0,-100.00,SSE,155,4.0,6.0,46,0.00,,,-99.99,,2013-07-17 23:22:00,
2013-07-17 18:32:00,94.0,70.0,-100.00,SE,135,4.0,6.0,47,0.00,,,-99.99,,2013-07-17 23:32:00,
2013-07-17 18:43:00,94.0,71.0,-100.00,SE,135,3.0,4.0,47,0.00,,,-99.99,,2013-07-17 23:43:00,
2013-07-17 18:52:00,93.0,71.0,-100.00,SE,145,3.0,4.0,48,0.00,,,-99.99,,2013-07-17 23:52:00,
2013-07-17 19:01:00,93.0,71.0,-100.00,SE,140,4.0,5.0,48,0.00,,,-99.99,,2013-07-18 00:01:00,
2013-07-17 19:11:00,92.0,71.0,-100.00,SE,145,4.0,6.0,49,0.00,,,-99.99,,2013-07-18 00:11:00,
2013-07-17 19:22:00,92.0,71.0,-100.00,SSE,155,2.0,6.0,50,0.00,,,-99.99,,2013-07-18 00:22:00,
2013-07-17 19:33:00,91.0,70.0,-100.00,SSE,165,4.0,6.0,50,0.00,,,-99.99,,2013-07-18 00:33:00,
2013-07-17 19:43:00,89.0,70.0,-100.00,South,180,3.0,6.0,54,0.00,,,-99.99,,2013-07-18 00:43:00,
2013-07-17 19:52:00,89.0,70.0,-100.00,South,170,4.0,5.0,54,0.00,,,-99.99,,2013-07-18 00:52:00,
2013-07-17 20:01:00,87.0,71.0,-100.00,South,175,2.0,6.0,57,0.00,,,-99.99,,2013-07-18 01:01:00,
2013-07-17 20:11:00,86.0,70.0,-100.00,WSW,255,5.0,8.0,60,0.00,,,-99.99,,2013-07-18 01:11:00,
2013-07-17 20:22:00,86.0,70.0,-100.00,WSW,250,3.0,5.0,57,0.00,,,-99.99,,2013-07-18 01:22:00,
2013-07-17 20:32:00,86.0,70.0,-100.00,South,185,1.0,4.0,59,0.00,,,-99.99,,2013-07-18 01:32:00,
2013-07-17 21:02:00,83.0,72.0,-100.00,SW,225,4.0,6.0,69,0.00,,,-99.99,,2013-07-18 02:02:00,
2013-07-17 21:11:00,82.0,73.0,-100.00,SW,225,3.0,5.0,73,0.00,,,-99.99,,2013-07-18 02:11:00,
2013-07-17 21:22:00,81.0,73.0,-100.00,SW,215,2.0,4.0,76,0.00,,,-99.99,,2013-07-18 02:22:00,
2013-07-17 21:32:00,81.0,74.0,-100.00,SSW,210,2.0,2.0,79,0.00,,,-99.99,,2013-07-18 02:32:00,
2013-07-17 21:43:00,81.0,74.0,-100.00,SSW,195,1.0,2.0,80,0.00,,,-99.99,,2013-07-18 02:43:00,
2013-07-17 21:52:00,81.0,74.0,-100.00,SW,230,1.0,2.0,80,0.00,,,-99.99,,2013-07-18 02:52:00,
2013-07-17 22:01:00,81.0,74.0,-100.00,WSW,245,1.0,2.0,78,0.00,,,-99.99,,2013-07-18 03:01:00,
2013-07-17 22:11:00,81.0,73.0,-100.00,WSW,240,0.0,1.0,77,0.00,,,-99.99,,2013-07-18 03:11:00,
2013-07-17 22:22:00,80.0,73.0,-100.00,SW,215,1.0,2.0,78,0.00,,,-99.99,,2013-07-18 03:22:00,
2013-07-17 22:32:00,79.0,73.0,-100.00,South,190,0.0,1.0,82,0.00,,,-99.99,,2013-07-18 03:32:00,
2013-07-17 22:43:00,79.0,74.0,-100.00,SW,230,1.0,1.0,83,0.00,,,-99.99,,2013-07-18 03:43:00,
2013-07-17 22:52:00,79.0,74.0,-100.00,SSW,210,1.0,2.0,83,0.00,,,-99.99,,2013-07-18 03:52:00,
2013-07-17 23:02:00,78.0,73.0,-100.00,SW,225,3.0,4.0,83,0.00,,,-99.99,,2013-07-18 04:02:00,
2013-07-17 23:12:00,78.0,73.0,-100.00,SW,220,4.0,5.0,83,0.00,,,-99.99,,2013-07-18 04:12:00,
2013-07-17 23:22:00,79.0,72.0,-100.00,SW,225,5.0,6.0,81,0.00,,,-99.99,,2013-07-18 04:22:00,
2013-07-17 23:32:00,78.0,72.0,-100.00,SW,225,4.0,6.0,81,0.00,,,-99.99,,2013-07-18 04:32:00,
2013-07-17 23:43:00,78.0,72.0,-100.00,SW,225,4.0,4.0,83,0.00,,,-99.99,,2013-07-18 04:43:00,
2013-07-17 23:52:00,77.0,72.0,-100.00,SW,225,4.0,4.0,84,0.00,,,-99.99,,2013-07-18 04:52:00,